SCP
0 0 0 0 0 0 0 0 0 0 0 0 0 0 0 0 0 0 0 0 0 0 0 0 0 0 0 0 0 0 0 0 0 0 0 0 0 0 0 0 0 0 0
0 0 0 0 0 0 0 0 0 0 0 0 0 0 0 0 0 0 0 0 0 0 0 0 0 0 0 0 0 0 0 0 0 0 0 0 0 0 0 0 0 0 0
0 0 0 0 0 0 0 0 0 0 0 0 0 0 0 0 0 0 0 0 0 0 0 0 0 0 0 0 0 0 0 0 0 0 0 0 0 0 0 0 0 0 0
0 0 0 0 0 0 0 0 0 0 0 0 0 0 0 0 0 0 0 0 0 0 0 0 0 0 0 0 0 0 0 0 0 0 0 0 0 0 0 0 0 0 0
0 0 0 0 0 0 0 0 0 0 0 0 0 0 0 0 0 0 0 0 0 0 0 0 0 0 0 0 0 0 0 0 0 0 0 0 0 0 0 0 0 0 0
0 0 0 0 0 0 0 0 0 0 0 0 0 0 0 0 0 0 0 0 0 0 0 0 0 0 0 0 0 0 0 0 0 0 0 0 0 0 0 0 0 0 0
0 0 0 0 0 0 0 0 0 0 0 0 0 0 0 0 0 0 0 0 0 0 0 0 0 0 0 0 0 0 0 0 0 0 0 0 0 0 0 0 0 0 0
0 0 0 0 0 0 0 0 0 0 0 0 0 0 0 0 0 0 0 0 0 0 0 0 0 0 0 0 0 0 0 0 0 0 0 0 0 0 0 0 0 0 0
0 0 0 0 0 0 0 0 0 0 0 0 0 0 0 0 0 0 0 0 0 0 0 0 0 0 0 0 0 0 0 0 0 0 0 0 0 0 0 0 0 0 0
0 0 0 0 0 0 0 0 0 0 0 0 0 0 0 0 0 0 0 0 0 0 0 0 0 0 0 0 0 0 0 0 0 0 0 0 0 0 0 0 0 0 0
0 0 0 0 0 0 0 0 0 0 0 0 0 0 0 0 0 0 0 0 0 0 0 0 0 0 0 0 0 0 0 0 0 0 0 0 0 0 0 0 0 0 0
0 0 0 0 0 0 0 0 0 0 0 0 0 0 0 0 0 0 0 0 0 0 0 0 0 0 0 0 0 0 0 0 0 0 0 0 0 0 0 0 0 0 0
0 0 0 0 0 0 0 0 0 0 0 0 0 0 0 0 0 0 0 0 0 0 0 0 0 0 0 0 0 0 0 0 0 0 0 0 0 0 0 0 0 0 0
0 0 0 0 0 0 0 0 0 0 0 0 0 0 0 0 0 0 0 0 0 0 0 0 0 0 0 0 0 0 0 0 0 0 0 0 0 0 0 0 0 0 0
0 0 0 0 0 0 0 0 0 0 0 0 0 0 0 0 0 0 0 0 0 0 0 0 0 0 0 0 0 0 0 0 0 0 0 0 0 0 0 0 0 0 0
0 0 0 0 0 0 0 0 0 0 0 0 0 0 0 0 0 0 0 0 0 0 0 0 0 0 0 0 0 0 0 0 0 0 0 0 0 0 0 0 0 0 0
0 0 0 0 0 0 0 0 0 0 0 0 0 0 0 0 0 0 0 0 0 0 0 0 0 0 0 0 0 0 0 0 0 0 0 0 0 0 0 0 0 0 0
0 0 0 0 0 0 0 0 0 0 0 0 0 0 0 0 0 0 0 0 0 0 0 0 0 0 0 0 0 0 0 0 0 0 0 0 0 0 0 0 0 0 0
1 1 0 0 0 0 0 0 0 0 0 0 0 0 0 0 0 0 0 0 0 0 0 0 0 0 0 0 0 0 0 0 0 0 0 0 0 0 0 0 0 0 0
1 1 0 0 0 0 0 0 0 0 0 0 0 0 0 0 0 0 0 0 0 0 0 0 0 0 0 0 0 0 0 0 0 0 0 0 0 0 0 0 0 0 0
0 0 0 0 0 0 0 0 0 0 0 0 0 0 0 0 0 0 0 0 0 0 0 0 0 0 0 0 0 0 0 0 0 0 0 0 0 0 0 0 0 0 0
0 0 0 0 0 0 0 0 0 0 0 0 0 0 0 0 0 0 0 0 0 0 0 0 0 0 0 0 0 0 0 0 0 0 0 0 0 0 0 0 0 0 0
0 0 0 0 0 0 0 0 0 0 0 0 0 0 0 0 0 0 0 0 0 0 0 0 0 0 0 0 0 0 0 0 0 0 0 0 0 0 0 0 0 0 0
0 0 0 0 0 0 0 0 0 0 0 0 0 0 0 0 0 0 0 0 0 0 0 0 0 0 0 0 0 0 0 0 0 0 0 0 0 0 0 0 0 0 0
0 0 0 0 0 0 0 0 0 0 0 0 0 0 0 0 0 0 0 0 0 0 0 0 0 0 0 0 0 0 0 0 0 0 0 0 0 0 0 0 0 0 0
0 0 0 0 0 0 0 0 0 0 0 0 0 0 0 0 0 0 0 0 0 0 0 0 0 0 0 0 0 0 0 0 0 0 0 0 0 0 0 0 0 0 0
Wind_Speed
2 1 1 1 1 1 2 2 1 2 2 2 2 2 1 1 1 1 4 8 5 4 4 4 4 3 3 4 4 5 5 6 6 7 7 7 8 8 9 9 9 9 8
1 1 1 1 1 1 1 1 2 2 2 1 1 2 1 1 1 1 2 5 7 5 4 3 3 3 3 3 4 5 5 6 6 6 6 8 9 9 9 9 9 9 9
2 2 1 2 1 1 2 1 2 2 2 3 2 2 2 2 2 2 2 2 4 7 6 4 4 3 4 3 4 5 5 5 6 5 5 7 8 9 9 9 8 8 9
2 2 1 1 1 2 2 2 2 1 1 2 2 2 2 2 2 2 2 2 2 2 6 6 5 4 4 3 4 4 5 5 5 4 5 6 7 7 7 7 7 7 8
2 2 1 1 2 2 2 2 2 1 1 1 2 2 2 2 2 2 2 2 2 2 2 6 7 5 4 3 3 3 4 5 5 5 5 5 6 7 7 7 6 6 7
2 2 2 1 2 2 1 1 1 1 1 1 2 1 1 1 1 1 2 2 2 2 2 2 4 5 6 4 3 3 3 5 5 6 6 6 6 6 6 7 7 6 6
2 2 2 1 2 1 2 2 2 2 2 2 2 2 2 3 2 2 1 1 2 2 2 2 2 2 4 7 4 3 3 4 4 4 5 6 6 6 7 7 7 7 7
3 2 2 2 1 1 2 2 2 2 2 2 2 2 3 3 3 2 2 3 2 2 2 3 2 2 2 2 4 4 3 3 3 4 5 5 6 6 6 7 7 7 7
2 2 2 2 2 2 2 2 3 3 3 3 3 3 2 2 2 3 3 2 2 2 2 2 3 2 2 1 2 5 3 2 3 3 3 4 5 6 7 7 7 7 7
2 2 2 2 2 2 2 3 3 3 4 3 3 3 3 2 2 2 4 3 3 3 3 2 2 3 3 2 2 3 3 2 3 3 3 3 4 5 6 6 6 6 6
2 2 2 3 3 2 2 2 2 3 3 3 3 3 3 3 4 3 2 3 3 3 3 3 2 2 2 2 2 3 4 3 3 2 2 3 4 5 6 6 5 5 5
2 2 3 3 3 2 2 2 3 4 3 3 3 3 3 3 4 3 3 3 2 2 3 2 2 2 2 2 2 4 4 3 3 3 3 3 4 4 5 5 5 6 5
2 2 2 2 2 2 2 2 2 2 3 3 3 3 3 3 3 3 3 2 2 2 3 3 2 2 2 2 2 4 4 4 3 3 4 3 4 4 5 5 5 5 6
1 2 2 2 2 2 2 1 2 2 2 2 3 2 2 3 2 2 3 2 3 2 2 2 2 2 1 1 2 3 3 5 4 3 3 4 4 4 4 5 5 5 6
2 2 2 2 2 2 1 1 1 1 2 3 2 3 3 2 2 2 2 3 3 2 2 2 1 1 0 1 1 1 1 4 3 3 2 3 4 5 4 4 4 4 4
2 2 3 3 3 2 2 1 1 1 1 1 1 1 2 2 1 2 2 3 3 3 1 1 0 1 1 0 2 1 0 6 4 3 3 3 3 4 4 4 4 4 3
3 3 3 3 3 2 2 1 1 1 1 1 1 1 1 2 1 1 1 2 1 1 1 0 1 1 0 1 0 1 2 2 3 5 4 3 3 3 4 4 3 3 3
3 3 3 3 3 3 3 2 1 1 1 1 0 1 1 0 0 1 1 1 0 1 2 1 0 1 1 1 1 2 1 1 1 6 6 4 4 4 4 4 4 4 3
3 3 4 4 3 3 2 2 1 1 1 1 1 1 0 0 0 0 1 1 0 1 1 1 1 0 0 0 1 1 1 1 2 5 7 6 5 4 4 4 4 4 3
4 4 3 3 3 3 2 2 2 2 2 1 1 1 1 1 1 0 1 1 1 1 1 2 1 2 1 1 1 1 1 1 1 1 2 3 6 6 6 5 5 4 4
4 4 3 3 3 3 2 1 2 3 2 2 2 2 3 3 4 3 2 1 0 1 1 1 1 1 1 1 1 1 1 1 1 1 1 2 3 3 5 7 6 5 5
3 4 4 4 3 3 4 2 1 2 2 2 2 2 3 4 4 3 4 4 4 1 1 1 0 0 0 1 1 2 1 2 1 1 2 2 2 2 2 2 5 6 6
4 4 3 4 4 5 4 2 1 1 2 2 2 1 2 3 2 2 2 2 1 2 2 2 1 1 1 1 2 2 1 3 2 1 2 2 1 1 2 3 7 6 5
3 3 3 3 3 4 4 2 1 2 2 2 2 2 1 2 3 1 1 2 1 2 1 1 1 2 2 2 3 3 3 4 4 2 2 3 2 2 1 2 7 6 6
3 3 3 3 3 4 4 2 1 2 2 2 2 2 1 2 3 1 1 2 1 2 3 3 3 2 2 2 3 3 3 3 2 1 1 3 2 2 2 2 5 9 8
3 3 3 3 3 3 5 3 2 2 2 2 3 3 4 2 2 0 1 1 1 0 1 1 1 2 3 3 3 3 3 4 3 2 0 2 3 3 2 2 2 4 5
Wind_Direction
229 220 214 231 231 170 177 181 185 174 203 194 187 167 157 137 137 142 129 130 138 150 166 177 185 180 185 197 199 204 207 199 200 200 204 205 198 194 192 189 187 188 189
244 244 216 204 211 198 187 181 166 190 203 185 190 167 175 160 135 167 165 145 151 160 169 184 192 194 197 204 206 204 209 207 203 201 206 207 200 197 194 192 193 194 194
229 230 227 217 209 198 176 196 186 187 187 182 177 178 178 177 159 172 204 192 167 165 170 180 192 200 208 215 209 201 201 203 206 204 203 197 195 196 195 194 198 200 200
224 232 225 223 205 217 208 193 206 187 166 183 171 182 170 169 176 191 204 195 194 176 165 168 183 194 206 210 209 205 202 196 195 194 196 183 180 183 185 186 195 203 207
213 227 232 223 225 218 217 220 175 191 177 185 188 185 171 163 186 192 201 198 179 194 185 161 176 184 187 189 197 198 195 189 186 184 184 176 176 179 182 183 188 196 204
211 230 218 214 238 222 213 218 181 187 196 213 219 172 179 174 206 191 214 180 178 187 193 186 177 171 175 172 180 177 186 184 190 190 187 186 185 186 189 188 192 199 200
209 223 236 196 236 219 215 202 207 189 202 214 204 190 181 188 189 202 214 217 194 192 187 191 206 200 171 168 166 174 183 187 186 193 196 197 198 195 196 196 197 199 199
213 214 216 214 205 206 194 200 211 226 212 218 231 224 212 187 190 197 204 211 221 204 198 190 193 208 227 171 137 153 164 190 198 202 203 205 206 203 199 198 200 203 203
205 212 208 219 211 215 192 207 219 223 225 221 243 261 254 228 180 174 201 207 220 223 228 201 196 196 200 190 156 153 164 189 198 206 202 203 210 210 203 202 204 206 207
196 195 206 214 219 221 197 214 205 225 234 228 218 248 271 306 262 186 182 184 207 219 240 239 203 201 209 186 138 113 147 184 204 216 224 219 213 209 204 208 209 211 210
181 183 197 211 210 215 209 223 212 230 230 242 242 232 227 223 247 252 216 192 195 201 215 229 224 219 209 197 192 139 152 172 188 202 225 224 215 210 206 206 206 211 210
173 173 198 202 204 206 206 219 224 223 242 246 257 249 235 236 234 242 238 220 211 189 196 209 218 213 204 197 173 119 145 171 181 196 212 216 211 208 205 207 209 213 210
171 173 199 204 201 196 200 221 229 244 237 235 246 256 255 256 256 253 255 234 221 186 180 192 206 208 204 194 154 149 168 180 183 204 212 212 211 208 204 206 211 213 209
179 165 185 193 193 190 194 210 232 228 221 227 242 259 259 258 262 254 262 254 234 209 188 186 170 178 191 184 110 189 175 167 185 203 217 219 211 204 202 207 216 221 213
165 153 163 166 175 165 171 213 235 233 216 218 221 229 254 254 257 248 250 259 263 251 216 174 165 133 206 137 108 220 215 127 166 188 204 209 203 200 205 209 210 212 209
147 144 149 160 168 154 154 190 212 180 184 204 233 245 261 261 254 243 240 245 255 267 273 92 106 81 25 331 123 204 189 137 154 161 158 177 189 198 201 193 193 202 200
161 157 155 163 160 149 145 165 172 142 153 152 242 212 247 299 287 261 249 243 240 235 236 201 93 106 142 296 106 255 221 202 149 154 158 169 176 185 191 183 176 178 182
163 152 150 153 151 147 147 157 150 124 148 143 98 49 7 301 271 285 266 257 256 254 246 203 189 147 177 216 208 260 263 224 165 143 157 170 183 190 190 185 175 170 179
155 149 151 151 153 144 144 151 147 134 86 79 95 90 54 10 11 36 305 278 240 208 242 203 188 168 201 150 202 220 221 255 230 149 163 175 179 182 188 185 177 176 186
152 156 154 153 150 143 140 142 136 120 113 102 91 82 62 39 18 321 250 272 254 217 201 210 176 177 189 170 212 216 200 194 236 168 149 167 168 177 182 181 185 190 198
155 146 146 142 139 137 105 107 130 122 123 122 108 95 79 64 45 16 355 9 258 244 215 205 181 176 158 199 239 252 263 250 180 222 229 195 180 193 183 184 189 191 196
150 143 136 131 124 93 65 36 317 131 128 117 105 107 117 104 92 86 45 36 21 343 346 321 52 45 312 278 287 270 272 265 237 156 266 249 218 213 205 184 153 170 189
149 146 145 141 123 97 87 74 336 189 126 109 105 102 89 92 117 102 125 146 103 40 359 330 337 322 296 305 286 266 272 288 298 291 260 252 228 228 218 134 143 168 186
154 151 147 136 126 108 109 109 309 194 138 135 128 118 102 95 79 39 95 96 84 74 59 272 332 314 325 323 277 262 256 249 237 225 253 269 258 247 236 175 158 180 191
160 159 153 148 143 124 123 131 262 181 138 136 135 124 129 129 85 3 177 122 102 98 101 83 40 18 20 336 302 275 267 267 269 236 230 273 271 265 244 221 172 181 193
163 165 159 162 159 141 133 145 241 208 149 152 145 136 98 73 103 271 230 172 146 45 36 139 176 212 216 197 217 257 277 279 287 285 87 277 280 278 265 238 223 190 199